Flag for United Arab Emirates Weather past 2 weeks in Abu Dhabi, Abu Dhabi, United Arab Emirates

Now
93 °F

Clear.


Feels Like: 93 °F
Forecast: 89 / 97 °F
Wind: 1 mph from North

Location: Abu Dhabi Bateen Airport

Current Time: Jul 5, 2015 at 4:17:22 AM

Latest Report: Jul 5, 2015 at 3:00 AM


Visibility: 4 mi

Pressure: 29.50 "Hg

Humidity: 32%

Dew point: 59 °F

Location of Abu DhabiLocation

Historic Weather in Abu Dhabi — Graph

°F

Abu Dhabi temperature yesterday

Maximum temperature yesterday: 117 °F (at 3:00 PM)
Minimum temperature yesterday: 93 °F (at 2:00 AM)
Average temperature yesterday: 102 °F

Past Weeks' High & Low Weather Summary

 TemperatureHumidityPressure
High117 °F (Jul 4, 3:00 PM)89% (Jun 21, 6:00 AM)29.65 "Hg (Jun 21, 6:00 AM)
Low84 °F (Jun 24, 6:00 AM)10% (Jul 4, 4:00 PM)29.36 "Hg (Jun 20, 3:00 PM)
Average95 °F49%29.51 "Hg
* Reported Jun 20 3:00 AM — Jul 5 3:00 AM, Abu Dhabi, Weather by CustomWeather, © 2015

Note: Actual official high and low records may vary slightly from our data, if they occured in-between our weather recording intervals... More about our weather records

Advertising

Abu Dhabi weather history for previous 24 hours

 ConditionsComfort  
Time TempWeatherWind HumidityBarometerVisibility
3:00 AM
Sun, Jul 5
93 °FClear.1 mph32%29.50 "Hg4 mi
2:00 AM95 °FClear.No wind30%29.53 "Hg5 mi
1:00 AM97 °FClear.3 mph28%29.53 "Hg5 mi
12:00 AM99 °FClear.5 mph29%29.53 "Hg10 mi
11:00 PM
Sat, Jul 4
99 °FClear.2 mph31%29.56 "Hg10 mi
10:00 PM99 °FClear.2 mph29%29.56 "Hg5 mi
9:00 PM97 °FPassing clouds.5 mph47%29.53 "HgN/A
8:00 PM97 °FClear.5 mph50%29.53 "Hg5 mi
7:00 PM99 °FClear.7 mph47%29.53 "Hg5 mi
6:00 PM108 °FClear.7 mph17%29.50 "Hg5 mi
5:00 PM108 °FClear.12 mph23%29.50 "Hg5 mi
4:00 PM115 °FClear.10 mph10%29.50 "Hg5 mi
3:00 PM117 °FClear.8 mph11%29.50 "Hg5 mi
2:00 PM115 °FClear.9 mph12%29.53 "Hg5 mi
1:00 PM113 °FClear.12 mph14%29.56 "Hg4 mi
12:00 PM111 °FDuststorm.10 mph17%29.56 "Hg3 mi
11:00 AM108 °FDuststorm.9 mph18%29.59 "Hg3 mi
10:00 AM104 °FClear.12 mph21%29.59 "Hg4 mi
9:00 AM100 °FClear.13 mph25%29.59 "Hg4 mi
8:00 AM99 °FClear.10 mph24%29.59 "Hg5 mi
7:00 AM97 °FPassing clouds.9 mph22%29.56 "HgN/A
6:00 AM97 °FSunny.10 mph20%29.56 "Hg10 mi
5:00 AM95 °FClear.7 mph28%29.53 "Hg10 mi
4:00 AM97 °FClear.7 mph39%29.53 "Hg10 mi
Weather by CustomWeather, © 2015

See weather overviewHow to use our weather pages